Temp
24 23 24 26 27 28 29 29 29 30 32 31 30 31 32 33 32 32 32 32 32 33 33 32 32 30 29 30 30 26 23 22 21 21 21 21 21 21 19 19 19 18 19 19
25 24 27 29 29 29 29 29 29 30 31 30 30 30 31 31 31 31 31 32 32 32 32 31 28 27 28 29 29 27 23 22 21 21 21 21 19 17 17 17 17 17 18 17
25 27 28 28 28 28 28 28 28 28 29 29 28 28 29 31 32 32 32 31 29 29 27 28 27 27 26 27 27 27 23 22 21 20 20 18 16 15 15 15 16 16 16 15
26 28 28 28 28 28 27 29 28 27 27 26 28 25 28 30 30 31 30 26 27 28 27 27 26 26 25 20 23 26 23 21 20 19 19 18 16 13 13 13 13 12 12 12
25 26 27 27 27 28 26 28 28 27 26 26 26 26 27 32 31 31 29 28 27 26 26 26 25 24 21 17 17 21 20 19 18 19 18 16 15 14 12 11 11 10 10 10
26 27 27 28 27 27 27 26 27 26 25 23 25 26 27 30 29 29 28 27 26 25 25 25 22 20 17 15 14 16 18 17 17 17 16 15 14 12 10 9 8 8 8 8
22 24 26 26 24 25 26 24 23 23 23 23 27 28 28 29 29 29 27 27 26 24 24 24 23 22 18 15 13 13 14 15 15 15 14 14 13 12 10 8 8 7 7 8
22 22 24 25 24 24 24 25 23 23 24 26 29 27 29 28 29 29 28 28 26 25 23 23 24 23 20 16 13 12 12 12 12 12 12 12 11 10 9 9 8 9 10 10
24 24 27 26 26 25 25 23 26 24 25 24 26 28 29 28 26 26 26 27 26 25 24 23 24 22 20 18 15 13 11 10 11 11 10 10 10 9 8 8 8 8 7 6
25 23 26 26 26 26 25 27 23 23 21 21 24 26 27 28 26 26 25 25 26 26 25 23 23 22 21 20 17 15 14 12 11 10 10 9 9 8 8 7 7 6 6 6
24 24 24 25 24 24 24 23 24 24 24 21 22 24 29 27 26 26 27 27 26 25 25 24 23 22 21 20 18 17 15 12 11 10 10 9 8 8 8 7 7 7 6 6
24 24 22 24 25 26 26 24 24 21 22 23 23 22 27 27 26 25 26 26 26 26 26 24 23 22 21 19 18 17 15 12 11 10 9 9 8 8 8 7 7 6 6 6
22 20 21 21 23 24 23 24 24 24 22 20 19 21 25 26 25 25 24 25 24 25 25 25 23 21 21 20 18 17 16 14 12 11 10 9 8 8 8 8 7 7 7 6
19 21 20 20 21 22 20 22 24 23 19 20 20 21 23 24 24 24 24 24 23 23 22 18 16 17 19 20 19 18 17 16 14 12 11 9 9 9 8 8 7 7 7 6
18 18 20 21 22 22 22 21 22 21 21 19 20 20 22 22 23 23 23 24 22 17 18 18 18 15 15 13 13 15 18 17 15 13 12 10 10 9 9 7 7 6 6 6
18 15 17 17 20 20 19 20 21 22 22 22 22 21 23 23 23 22 23 23 22 22 17 16 15 14 13 13 13 12 12 14 14 12 12 11 10 9 8 7 6 6 6 6
12 13 13 14 17 17 15 17 19 20 21 21 18 20 20 19 18 17 17 16 13 14 15 16 15 15 13 12 10 11 11 11 12 12 12 11 10 9 8 7 7 6 6 6
9 10 11 13 15 13 18 21 20 20 19 16 16 14 14 14 14 14 14 14 13 13 12 12 12 12 11 10 10 10 10 11 11 11 11 10 10 9 8 8 7 7 7 7
10 10 11 12 13 15 16 18 16 15 15 13 13 13 13 13 13 13 13 13 13 12 11 11 11 11 11 10 11 11 10 11 10 10 11 10 10 9 8 8 7 7 7 6
11 11 10 10 11 12 15 15 15 15 13 13 12 12 12 12 11 13 13 12 12 13 12 11 11 11 12 12 11 11 10 10 11 12 11 12 10 9 8 8 8 7 7 6
10 10 10 10 10 11 15 15 15 12 12 13 13 13 13 12 12 13 13 12 12 11 11 12 13 12 12 12 13 11 11 10 10 11 12 11 9 9 8 7 6 6 5 4
12 11 10 11 11 11 14 14 12 13 14 14 14 13 12 13 12 11 11 11 12 12 11 11 11 12 13 13 11 10 10 9 9 9 10 10 8 7 6 5 4 4 3 2
10 12 13 13 12 13 14 14 14 14 14 14 13 14 14 12 11 9 9 10 10 11 11 11 11 11 11 13 13 12 11 9 8 6 7 7 6 5 5 3 2 1 1 1
14 15 12 12 13 14 14 14 14 14 14 14 13 13 12 10 6 6 9 10 11 12 12 12 12 11 11 12 11 12 10 8 6 6 6 5 4 3 3 2 2 1 1 0
13 13 12 12 13 13 13 14 14 14 14 13 13 13 12 12 12 12 12 12 12 13 12 12 11 11 11 11 10 9 9 7 5 5 5 4 4 3 2 2 1 1 1 1
13 12 11 10 12 12 12 13 14 13 12 12 12 12 12 12 11 12 11 11 11 12 12 12 11 11 10 10 10 9 8 6 4 4 3 3 3 3 2 2 1 2 2 1
Height
758 767 762 750 743 739 738 741 741 726 717 723 724 715 708 699 697 697 696 695 691 689 688 693 699 701 706 707 711 713 720 728 736 744 753 759 762 765 766 769 774 778 782 785
752 754 741 732 729 732 732 736 734 719 719 722 715 710 705 700 697 692 689 687 685 684 685 690 698 702 706 708 710 712 719 726 732 739 748 755 758 761 766 769 772 777 780 784
747 728 726 730 731 735 732 737 734 732 726 722 725 711 706 689 679 680 680 681 687 693 696 695 701 705 709 710 711 714 717 724 732 737 743 751 755 759 763 766 769 774 778 781
730 719 721 722 726 725 734 724 724 732 736 745 727 730 713 696 689 682 684 693 695 695 699 701 705 708 712 715 714 716 719 724 730 734 740 745 751 756 758 765 769 773 777 779
711 721 723 724 721 719 723 722 724 726 736 737 737 738 709 678 682 679 685 692 697 700 704 704 709 713 716 719 719 720 722 725 728 732 736 742 748 753 758 764 768 774 778 780
709 709 710 711 712 716 718 728 724 728 739 750 736 732 714 692 686 683 690 695 699 703 705 707 713 718 721 723 723 723 725 728 729 732 736 739 743 748 754 759 764 770 776 780
728 715 708 709 723 719 723 737 755 756 754 745 712 707 701 684 683 686 693 695 700 703 706 708 712 717 721 724 724 724 724 725 728 731 734 738 742 746 750 755 760 766 772 777
723 722 704 696 706 723 724 727 740 751 738 720 691 709 694 679 677 680 686 690 695 702 705 708 709 712 718 723 725 727 727 728 730 732 736 738 741 745 749 752 757 762 766 771
701 704 667 681 692 706 716 727 710 725 719 728 713 695 677 681 690 693 695 695 698 702 706 709 709 714 718 721 725 726 729 731 734 734 738 741 744 747 752 756 760 763 766 769
688 707 680 684 685 695 703 698 728 727 750 751 716 707 700 687 691 695 698 699 697 695 700 706 711 715 717 719 723 727 727 731 734 737 741 745 748 751 754 757 761 766 770 774
688 695 694 688 694 700 706 712 710 711 718 739 734 714 678 686 689 693 690 689 691 692 693 699 705 711 715 715 719 722 724 728 731 733 738 742 745 750 754 758 763 766 770 774
679 689 701 693 686 680 684 697 703 727 726 716 719 699 681 681 684 690 692 693 690 689 689 693 701 706 711 717 719 724 725 726 728 731 735 739 743 747 754 759 763 767 770 774
682 705 708 705 697 686 698 695 693 698 711 722 738 700 683 679 684 687 692 691 695 693 690 688 695 704 709 716 721 722 725 728 732 735 737 739 743 747 751 757 761 764 769 773
691 694 701 708 700 694 710 701 693 697 718 713 711 703 682 688 689 688 689 690 695 697 695 700 702 711 712 713 714 719 722 727 730 737 741 740 741 747 749 754 758 761 765 770
700 707 700 695 693 694 695 701 694 700 698 712 696 705 686 690 691 689 687 687 692 700 702 700 701 708 716 716 724 720 718 718 722 729 736 740 740 744 747 753 759 760 763 768
700 715 709 708 698 696 704 698 690 690 688 686 689 693 685 683 682 687 683 684 687 690 700 707 713 714 717 720 721 718 719 721 726 726 727 733 738 739 743 744 754 761 761 767
719 720 723 718 708 707 717 698 700 691 682 686 698 690 687 693 697 702 700 702 709 707 707 711 714 715 717 719 716 720 720 720 723 720 724 726 730 738 741 741 744 759 761 764
730 729 730 719 713 717 683 673 678 681 685 699 701 710 710 711 714 713 711 712 716 719 720 720 721 718 719 718 716 716 716 715 720 721 724 721 729 732 737 734 743 750 754 758
722 724 724 718 708 695 689 685 692 697 700 714 716 716 715 715 711 712 714 715 719 722 724 724 722 719 715 714 713 712 711 710 713 718 723 723 721 730 729 729 737 745 747 753
718 721 724 722 718 705 690 695 699 702 708 715 718 719 719 719 718 708 712 716 718 718 719 719 718 715 713 712 710 707 707 707 706 711 713 710 716 718 719 722 729 735 739 748
712 717 720 721 719 709 691 694 699 712 715 714 714 714 714 716 713 709 712 714 715 715 715 714 711 709 708 706 704 701 699 698 699 699 701 701 703 705 710 713 721 728 737 744
693 705 711 713 710 710 693 699 706 704 705 708 711 712 712 712 710 710 710 711 710 711 711 710 708 704 699 698 696 695 695 692 691 691 691 692 694 700 704 712 714 724 730 739
702 692 689 693 696 696 696 700 699 699 701 704 707 707 706 706 708 709 709 708 707 706 704 702 701 699 696 691 686 685 685 687 686 687 686 686 689 691 696 706 715 721 726 736
676 677 688 695 690 691 693 695 697 699 699 700 703 705 705 707 708 706 701 697 694 692 690 691 690 689 689 687 683 678 677 680 683 681 683 681 683 686 692 699 707 717 718 727
679 681 688 691 689 689 692 693 695 695 696 699 702 702 700 697 694 692 689 686 683 680 679 680 681 680 679 679 679 677 674 673 678 679 677 678 679 683 687 693 697 703 710 708
679 684 692 694 691 692 690 691 692 694 697 698 697 694 693 693 691 688 685 683 680 674 672 668 668 670 670 672 671 672 673 672 675 676 673 676 676 679 683 687 692 699 707 711
Wind_Speed
16 11 15 21 20 21 17 19 23 21 20 22 21 25 20 20 20 20 19 19 18 15 7 6 9 4 7 8 14 31 33 32 33 29 27 26 26 25 22 26 21 21 25 27
14 20 19 21 21 21 21 22 23 23 20 21 22 26 22 21 22 23 23 22 18 6 5 6 14 9 8 8 11 25 31 32 30 30 28 20 16 18 20 20 21 15 18 23
21 19 23 23 22 22 22 20 21 23 22 20 22 29 18 20 20 2 9 6 10 7 13 9 8 7 9 7 3 9 29 30 26 25 28 19 18 17 16 14 17 18 18 21
21 23 25 24 23 18 23 19 21 20 19 16 16 22 16 18 19 15 2 9 4 6 6 5 8 7 7 14 9 13 20 25 25 26 30 31 23 12 13 17 16 17 20 20
29 18 20 23 25 19 25 21 23 18 18 19 18 13 12 10 13 12 14 9 7 7 4 4 4 5 6 8 5 2 14 22 28 29 30 32 25 19 20 21 21 19 16 16
31 24 24 21 14 13 15 17 18 12 13 16 18 16 10 3 12 16 14 9 7 5 4 1 6 3 4 3 2 4 15 17 23 29 30 31 30 28 26 26 25 22 20 18
23 32 29 21 17 12 15 14 7 8 9 11 17 13 14 9 10 10 10 8 6 5 2 3 6 7 6 3 2 6 13 17 21 25 26 27 28 29 30 32 30 29 26 23
17 12 31 24 29 16 16 17 7 8 10 12 9 8 4 10 9 9 9 6 10 6 4 4 5 4 7 6 5 5 8 11 15 18 20 22 25 27 29 30 30 28 26 26
11 14 8 22 24 22 20 17 17 16 14 11 9 16 18 11 11 7 2 1 2 5 5 5 4 4 7 10 10 8 8 8 10 13 15 18 20 22 24 25 27 28 28 28
9 2 16 6 23 21 24 13 12 8 6 8 10 13 7 4 12 8 3 5 5 6 6 5 4 6 8 10 12 14 14 15 13 12 14 15 15 17 20 23 20 22 23 23
18 9 11 14 11 16 13 13 11 10 9 4 8 9 4 8 7 4 3 5 7 9 9 9 7 8 11 12 16 16 22 20 21 21 23 22 21 21 23 23 22 21 24 21
16 8 9 16 14 15 14 15 15 9 16 10 11 20 7 10 8 7 11 12 13 12 7 8 9 11 12 13 16 17 19 23 23 23 24 23 22 24 23 23 21 22 23 20
8 6 8 10 12 14 10 15 12 13 14 21 12 20 4 10 8 7 7 7 13 13 10 9 10 8 11 13 14 16 17 20 20 21 22 23 24 24 24 26 24 23 23 21
7 10 11 11 12 5 2 17 21 18 11 14 20 23 25 16 13 12 9 6 7 12 9 6 7 0 8 11 17 17 17 19 22 23 20 22 24 24 26 25 25 27 27 27
4 11 15 20 22 21 18 15 20 18 17 17 22 17 24 17 17 12 15 13 7 3 10 2 4 3 3 8 11 15 16 27 28 27 26 25 26 26 25 24 25 28 28 26
6 4 10 19 23 20 18 23 25 22 19 20 18 22 18 21 21 20 14 13 5 7 2 4 2 3 5 9 11 12 14 10 9 26 30 28 30 28 30 29 25 25 26 26
3 4 4 17 19 17 14 25 24 25 25 21 19 18 15 16 16 16 14 16 17 15 12 9 7 6 3 4 7 9 12 11 11 22 26 31 31 28 28 29 29 26 26 27
6 6 3 8 12 10 14 19 18 20 12 12 8 8 9 9 11 9 13 13 14 14 12 9 9 13 14 11 8 13 17 19 17 13 20 21 28 31 33 31 31 32 31 31
5 4 4 4 9 9 12 4 4 6 1 3 3 2 5 9 11 6 8 10 9 8 6 8 13 16 13 16 20 18 23 25 20 18 27 26 32 33 31 34 36 35 32 33
14 8 4 4 4 7 6 9 6 2 6 3 3 3 6 8 6 2 9 10 9 9 8 10 16 16 15 17 17 17 20 22 24 23 29 31 38 38 37 42 42 41 38 39
7 5 10 8 5 4 10 7 2 4 2 3 6 7 8 8 7 11 8 10 10 13 16 18 17 18 21 22 19 16 20 20 25 27 31 35 40 44 44 45 44 42 38 37
11 8 6 6 6 10 11 3 4 4 5 6 7 10 11 12 11 8 11 11 11 13 17 20 21 23 24 25 18 13 16 21 28 27 27 33 40 35 35 37 38 41 39 34
6 6 6 5 2 3 3 0 5 8 9 10 12 13 13 10 8 5 8 10 12 15 21 24 23 24 31 25 20 16 17 16 20 22 26 31 34 36 37 35 32 32 34 30
11 11 2 5 6 7 8 8 10 12 12 12 12 14 14 12 8 8 12 14 15 17 18 22 21 20 24 26 21 22 11 12 15 19 25 26 30 30 32 34 35 30 33 29
5 3 5 8 11 10 12 13 12 12 11 13 15 15 16 17 17 18 17 17 16 17 22 22 22 20 21 24 23 26 14 11 14 21 22 25 25 30 30 34 37 35 33 40
10 11 7 8 11 10 13 12 14 11 14 15 16 15 14 17 18 18 15 15 18 17 25 23 23 23 26 28 22 22 16 11 14 20 20 22 24 27 28 29 26 27 29 30
Wind_Direction
201 212 218 227 223 247 268 272 271 274 285 292 290 286 286 286 281 278 274 271 275 281 269 272 265 48 335 295 268 166 165 170 173 180 197 218 220 200 192 186 183 200 207 206
233 229 232 236 238 248 260 273 276 283 291 295 296 294 301 299 288 275 270 261 264 306 271 222 84 35 345 273 225 164 165 170 175 182 192 216 193 174 185 189 191 182 201 204
228 234 218 235 246 254 259 265 278 284 292 294 298 283 277 269 259 295 318 39 38 18 13 82 88 60 336 345 212 170 167 171 173 180 187 185 173 171 184 187 194 199 201 196
241 249 253 263 241 250 258 261 272 287 292 283 289 292 288 284 266 277 304 77 87 76 55 50 47 31 14 21 31 177 156 167 176 188 193 197 188 166 189 191 191 195 201 195
238 244 244 246 257 264 280 286 278 267 280 289 275 271 291 283 237 214 133 119 96 80 44 21 74 25 45 359 353 122 175 171 181 196 203 191 185 188 185 187 184 178 172 165
256 258 259 259 282 271 273 276 258 257 267 260 260 241 286 330 51 90 98 109 129 146 156 137 102 134 80 27 32 121 171 178 187 195 195 189 187 177 170 167 163 157 151 142
254 250 254 254 249 241 245 241 225 225 221 244 255 239 219 143 102 114 129 142 147 123 176 184 173 180 143 145 157 164 166 171 185 191 192 193 191 186 176 169 163 152 146 148
223 246 225 222 231 224 216 220 201 213 225 252 264 253 232 114 123 140 152 171 164 154 177 228 216 159 153 161 165 177 170 166 179 184 185 186 185 181 177 177 167 161 161 160
222 231 180 201 209 203 228 214 230 268 289 291 268 282 296 146 108 95 48 26 188 191 213 227 227 193 172 170 164 170 163 160 167 172 176 175 178 178 176 170 165 164 164 162
271 192 169 162 190 200 235 206 213 220 244 239 245 249 252 82 139 138 181 213 244 224 202 204 211 203 208 175 162 174 168 153 152 152 166 162 151 154 156 155 155 165 160 165
230 255 190 164 186 185 200 235 236 232 229 251 273 260 338 103 113 50 327 218 202 231 197 187 189 193 225 167 152 156 141 142 145 147 149 146 148 150 158 159 168 167 167 168
204 227 208 201 188 221 224 213 227 224 237 245 252 266 274 285 340 48 354 334 326 330 212 188 183 183 196 169 158 164 156 151 157 160 159 154 155 161 158 162 161 168 162 167
126 231 205 214 247 267 236 248 250 226 226 244 248 260 221 285 300 320 348 341 351 331 312 205 175 195 187 178 181 177 176 163 167 166 163 160 160 163 163 169 169 168 169 172
7 223 213 226 234 215 233 255 248 247 243 252 240 261 271 272 291 308 306 310 9 325 321 35 49 9 275 211 188 187 184 183 174 170 173 167 170 173 172 172 171 168 172 175
320 250 247 252 259 265 273 255 252 247 257 244 262 264 274 290 292 298 293 285 315 43 349 264 210 99 37 64 334 342 200 189 181 177 178 179 182 177 174 174 180 182 184 178
221 246 267 263 260 269 275 263 264 270 261 254 248 257 261 267 275 278 298 302 282 284 116 120 116 64 54 29 23 10 6 333 216 168 180 181 180 177 180 181 183 180 174 176
106 184 198 251 252 257 262 250 259 265 263 267 261 280 318 317 338 344 355 36 38 35 32 5 18 4 9 324 10 345 349 347 287 226 187 181 176 177 177 174 170 181 177 177
156 159 167 248 262 231 258 254 253 256 254 335 304 6 1 357 340 14 34 49 38 29 20 5 345 334 318 310 311 307 312 311 294 272 239 174 179 181 183 175 179 181 179 179
178 137 181 216 225 297 296 343 352 346 184 57 16 14 340 327 308 101 45 32 22 13 353 343 323 310 302 297 296 292 288 290 270 244 237 208 193 189 179 180 183 183 181 180
188 209 204 164 228 221 106 92 51 309 247 112 35 354 338 341 327 13 14 343 331 325 326 290 292 283 281 282 278 274 274 271 261 259 229 221 197 195 188 189 187 185 185 184
178 173 214 227 247 262 272 129 89 229 14 331 314 311 309 301 292 301 293 286 290 298 297 292 284 271 274 278 263 266 271 267 271 268 250 213 204 203 197 189 184 184 184 184
176 181 195 229 248 259 120 139 232 9 321 303 300 296 291 286 287 290 295 295 299 295 297 298 298 291 263 267 242 242 264 282 295 283 259 225 207 193 191 188 182 183 181 174
197 228 201 194 185 132 113 249 277 302 304 309 297 288 295 307 304 293 286 283 282 279 280 280 275 276 284 269 252 265 253 283 291 273 241 210 195 186 186 181 177 172 171 171
197 223 262 312 278 293 303 313 307 299 292 298 323 318 309 300 276 261 272 271 265 263 269 275 271 266 271 282 302 273 242 267 283 243 223 199 185 178 179 180 180 182 173 174
241 304 262 283 276 293 294 293 290 293 318 318 305 296 288 287 286 285 282 283 284 280 270 264 270 277 281 272 274 290 264 247 247 244 226 204 190 183 179 184 184 188 193 183
238 243 241 249 256 261 267 272 283 314 309 296 288 293 313 311 303 302 307 310 307 298 286 264 256 259 265 267 262 270 287 236 240 234 217 208 197 188 183 179 177 191 197 193